Location: ??
(35.5672°N, 139.6509°E)
Time: 12:10:12
(UTC+00:00)

SPOT 3 Rocket - Pass Details

Date: 03 August 2024
Orbit: 775 x 793 km, 98.6° (Epoch: 13 September)

Event Time Altitude Azimuth Distance (km) Brightness Sun altitude
Exits shadow 12:20:18 87° 151° (SSE) 799 3.4 -26.7°
Maximum altitude 12:20:24 89° 80° (E) 798 3.4 -26.7°
Drops below altitude 10° 12:25:39 10° 347° (NNW) 2,365 6.8 -27.4°
Sets 12:27:59 0° 348° (NNW) 3,296 7.8 -27.7°
